Location: Saluda
(35.2377°N, 82.3468°W)
Time: 15:32:40
(UTC+00:00)

Explorer 11/Cluster Stage 4 - Pass Details

Date: 10 October 2022
Orbit: 466 x 1247 km, 28.8° (Epoch: 08 December)

Event Time Altitude Azimuth Distance (km) Brightness Sun altitude
Rises 12:08:24 0° 213° (SSW) 3,585 9.8 6.6°
Reaches altitude 10° 12:11:30 10° 198° (SSW) 2,777 9.4 7.2°
Maximum altitude 12:16:35 22° 151° (SSE) 2,215 9.6 8.2°
Drops below altitude 10° 12:22:13 10° 105° (ESE) 3,120 14.8 9.3°
Sets 12:25:56 0° 91° (E) 4,150 12.1 10.1°
